TimeCDT,TemperatureF,Dew PointF,Humidity,Sea Level PressureIn,VisibilityMPH,Wind Direction,Wind SpeedMPH,Gust SpeedMPH,PrecipitationIn,Events,Conditions,WindDirDegrees,DateUTC
12:35 AM,44.6,44.6,100,29.61,10.0,SSE,6.9,-,N/A,,Partly Cloudy,160,2012-10-21 05:35:00
12:55 AM,44.6,44.6,100,29.62,10.0,SSE,3.5,-,N/A,,Clear,150,2012-10-21 05:55:00
1:15 AM,44.6,44.6,100,29.63,10.0,SSE,5.8,-,N/A,,Clear,150,2012-10-21 06:15:00
1:35 AM,44.6,44.6,100,29.63,9.0,South,5.8,-,N/A,,Clear,180,2012-10-21 06:35:00
2:15 AM,44.6,44.6,100,29.63,8.0,SE,3.5,-,N/A,,Clear,130,2012-10-21 07:15:00
2:35 AM,44.6,44.6,100,29.63,8.0,SE,5.8,-,N/A,,Clear,130,2012-10-21 07:35:00
2:55 AM,44.6,44.6,100,29.64,8.0,East,4.6,-,N/A,,Partly Cloudy,100,2012-10-21 07:55:00
3:15 AM,44.6,44.6,100,29.64,9.0,ESE,3.5,-,N/A,,Partly Cloudy,120,2012-10-21 08:15:00
3:35 AM,44.6,44.6,100,29.65,7.0,SE,6.9,-,N/A,,Scattered Clouds,140,2012-10-21 08:35:00
3:55 AM,44.6,44.6,100,29.65,7.0,SSE,3.5,-,N/A,,Mostly Cloudy,150,2012-10-21 08:55:00
4:15 AM,42.8,42.8,100,29.66,7.0,South,3.5,-,N/A,,Mostly Cloudy,170,2012-10-21 09:15:00
4:35 AM,42.8,42.8,100,29.67,8.0,Calm,Calm,-,N/A,,Partly Cloudy,0,2012-10-21 09:35:00
5:15 AM,44.6,44.6,100,29.68,10.0,NNW,4.6,-,N/A,,Mostly Cloudy,330,2012-10-21 10:15:00
6:15 AM,44.6,44.6,100,29.71,10.0,Calm,Calm,-,N/A,,Overcast,0,2012-10-21 11:15:00
6:35 AM,44.6,44.6,100,29.71,10.0,West,5.8,-,N/A,,Overcast,280,2012-10-21 11:35:00
6:55 AM,48.2,46.4,93,29.71,10.0,WNW,8.1,-,N/A,,Overcast,290,2012-10-21 11:55:00
7:15 AM,48.2,44.6,87,29.72,10.0,WNW,8.1,-,N/A,,Overcast,290,2012-10-21 12:15:00
7:35 AM,46.4,42.8,87,29.72,10.0,WNW,10.4,-,N/A,,Overcast,300,2012-10-21 12:35:00
7:55 AM,46.4,41.0,81,29.73,10.0,WNW,10.4,-,N/A,,Overcast,300,2012-10-21 12:55:00
8:35 AM,44.6,39.2,81,29.75,10.0,WNW,10.4,17.3,N/A,,Mostly Cloudy,300,2012-10-21 13:35:00
8:55 AM,44.6,39.2,81,29.77,10.0,NW,11.5,-,N/A,,Mostly Cloudy,310,2012-10-21 13:55:00
9:35 AM,44.6,39.2,81,29.80,10.0,WNW,8.1,-,N/A,,Overcast,300,2012-10-21 14:35:00
10:15 AM,42.8,39.2,87,29.82,10.0,NW,10.4,-,N/A,,Overcast,320,2012-10-21 15:15:00
10:35 AM,44.6,39.2,81,29.84,10.0,NW,11.5,-,N/A,,Overcast,320,2012-10-21 15:35:00
10:55 AM,44.6,39.2,81,29.85,10.0,NW,11.5,-,N/A,,Overcast,310,2012-10-21 15:55:00
11:15 AM,44.6,39.2,81,29.86,10.0,NW,6.9,-,N/A,,Overcast,310,2012-10-21 16:15:00
11:35 AM,44.6,39.2,81,29.87,10.0,NW,8.1,-,N/A,,Overcast,320,2012-10-21 16:35:00
12:15 PM,44.6,39.2,81,29.89,10.0,NW,13.8,19.6,N/A,,Overcast,310,2012-10-21 17:15:00
12:35 PM,44.6,37.4,76,29.91,10.0,NW,13.8,20.7,N/A,,Overcast,310,2012-10-21 17:35:00
12:55 PM,41.0,37.4,87,29.91,10.0,NW,12.7,-,N/A,,Mostly Cloudy,320,2012-10-21 17:55:00
1:15 PM,41.0,37.4,87,29.90,10.0,NNW,9.2,-,N/A,,Mostly Cloudy,330,2012-10-21 18:15:00
1:35 PM,42.8,37.4,81,29.90,10.0,NW,11.5,-,N/A,,Scattered Clouds,320,2012-10-21 18:35:00
1:55 PM,44.6,37.4,76,29.90,10.0,NW,9.2,18.4,N/A,,Partly Cloudy,320,2012-10-21 18:55:00
2:15 PM,46.4,37.4,71,29.91,10.0,NNW,10.4,-,N/A,,Partly Cloudy,330,2012-10-21 19:15:00
2:35 PM,44.6,35.6,71,29.91,10.0,NNW,9.2,-,N/A,,Scattered Clouds,330,2012-10-21 19:35:00
2:55 PM,46.4,35.6,66,29.92,10.0,NNW,10.4,-,N/A,,Scattered Clouds,340,2012-10-21 19:55:00
3:15 PM,46.4,35.6,66,29.92,10.0,NW,11.5,17.3,N/A,,Scattered Clouds,320,2012-10-21 20:15:00
3:35 PM,46.4,33.8,62,29.93,10.0,NNW,9.2,-,N/A,,Partly Cloudy,330,2012-10-21 20:35:00
3:55 PM,46.4,32.0,57,29.93,10.0,NNW,12.7,16.1,N/A,,Scattered Clouds,330,2012-10-21 20:55:00
4:15 PM,46.4,32.0,57,29.94,10.0,NNW,8.1,-,N/A,,Clear,330,2012-10-21 21:15:00
4:35 PM,46.4,33.8,62,29.94,10.0,NNW,5.8,-,N/A,,Clear,330,2012-10-21 21:35:00
4:55 PM,46.4,32.0,57,29.95,10.0,NNW,5.8,-,N/A,,Clear,340,2012-10-21 21:55:00
5:15 PM,46.4,33.8,62,29.95,10.0,North,4.6,-,N/A,,Clear,360,2012-10-21 22:15:00
5:35 PM,46.4,33.8,62,29.95,10.0,NE,4.6,-,N/A,,Clear,40,2012-10-21 22:35:00
5:55 PM,44.6,33.8,66,29.96,10.0,ENE,3.5,-,N/A,,Clear,60,2012-10-21 22:55:00
6:15 PM,44.6,33.8,66,29.97,10.0,Calm,Calm,-,N/A,,Clear,0,2012-10-21 23:15:00
6:35 PM,42.8,33.8,70,29.98,10.0,Calm,Calm,-,N/A,,Clear,0,2012-10-21 23:35:00
6:55 PM,39.2,33.8,81,29.99,10.0,SE,3.5,-,N/A,,Clear,140,2012-10-21 23:55:00
7:15 PM,39.2,35.6,87,29.99,10.0,SE,3.5,-,N/A,,Clear,130,2012-10-22 00:15:00
7:35 PM,39.2,35.6,87,30.00,10.0,South,3.5,-,N/A,,Clear,190,2012-10-22 00:35:00
7:55 PM,37.4,35.6,93,30.01,10.0,Calm,Calm,-,N/A,,Clear,0,2012-10-22 00:55:00
8:15 PM,37.4,35.6,93,30.02,10.0,SW,4.6,-,N/A,,Clear,230,2012-10-22 01:15:00
8:35 PM,35.6,33.8,93,30.03,10.0,Calm,Calm,-,N/A,,Partly Cloudy,0,2012-10-22 01:35:00
8:55 PM,35.6,33.8,93,30.03,10.0,West,3.5,-,N/A,,Partly Cloudy,260,2012-10-22 01:55:00
9:15 PM,33.8,32.0,93,30.03,10.0,Calm,Calm,-,N/A,,Clear,0,2012-10-22 02:15:00
9:35 PM,32.0,32.0,100,30.04,10.0,SSW,3.5,-,N/A,,Clear,200,2012-10-22 02:35:00
9:55 PM,33.8,33.8,100,30.05,10.0,Calm,Calm,-,N/A,,Clear,0,2012-10-22 02:55:00
10:15 PM,32.0,32.0,100,30.05,10.0,Calm,Calm,-,N/A,,Clear,0,2012-10-22 03:15:00
10:35 PM,32.0,32.0,100,30.05,10.0,Calm,Calm,-,N/A,,Clear,0,2012-10-22 03:35:00
10:55 PM,32.0,32.0,100,30.06,10.0,West,3.5,-,N/A,,Clear,270,2012-10-22 03:55:00
11:35 PM,32.0,32.0,100,30.07,10.0,Calm,Calm,-,N/A,,Clear,0,2012-10-22 04:35:00
11:55 PM,32.0,32.0,100,30.08,10.0,West,3.5,-,N/A,,Clear,260,2012-10-22 04:55:00